• In Deutschland
  • Länderverzeichnis
  • Für 7 Tage
  • Wassertemperatur
  • Satellitenkarten
  • Wetterkarte
  • Widgets
  • user-avatar
    Anmelden

    Stündliche Wetter Annaba

    Heute, 24 September, Sonntag

    Zeit Temperatur Niederschläge Wind Luftdruck Luftfeuchtigkeit
    00:00 +26°C° 0 mm 1 m/S 761 mmHg 61%
    01:00 +26°C° 0 mm 1 m/S 761 mmHg 61%
    02:00 +25°C° 0 mm 2 m/S 761 mmHg 64%
    03:00 +25°C° 0 mm 2 m/S 761 mmHg 66%
    04:00 +25°C° 0 mm 3 m/S 761 mmHg 68%
    05:00 +24°C° 0 mm 2 m/S 761 mmHg 72%
    06:00 +24°C° 0 mm 2 m/S 761 mmHg 75%
    07:00 +24°C° 0 mm 1 m/S 761 mmHg 79%
    08:00 +25°C° 0 mm 2 m/S 762 mmHg 74%
    09:00 +26°C° 0 mm 2 m/S 762 mmHg 70%
    10:00 +28°C° 0 mm 3 m/S 763 mmHg 65%
    11:00 +28°C° 0 mm 3 m/S 763 mmHg 61%
    12:00 +29°C° 0 mm 4 m/S 763 mmHg 57%
    13:00 +30°C° 0 mm 5 m/S 763 mmHg 54%
    14:00 +29°C° 0 mm 5 m/S 762 mmHg 54%
    15:00 +29°C° 0 mm 4 m/S 762 mmHg 54%
    16:00 +29°C° 0 mm 4 m/S 762 mmHg 55%
    17:00 +27°C° 0 mm 4 m/S 762 mmHg 60%
    18:00 +26°C° 0 mm 3 m/S 762 mmHg 65%
    19:00 +25°C° 0 mm 2 m/S 763 mmHg 70%
    20:00 +24°C° 0 mm 2 m/S 763 mmHg 73%
    21:00 +23°C° 0 mm 2 m/S 763 mmHg 77%
    22:00 +23°C° 0 mm 1 m/S 764 mmHg 80%
    23:00 +22°C° 0 mm 1 m/S 764 mmHg 82%

    Morgen, 25 September, Montag

    Zeit Temperatur Niederschläge Wind Luftdruck Luftfeuchtigkeit
    00:00 +22°C° 0 mm 1 m/S 763 mmHg 83%
    01:00 +21°C° 0 mm 1 m/S 763 mmHg 85%
    02:00 +21°C° 0 mm 1 m/S 763 mmHg 84%
    03:00 +21°C° 0 mm 1 m/S 763 mmHg 83%
    04:00 +21°C° 0 mm 1 m/S 762 mmHg 82%
    05:00 +21°C° 0 mm 1 m/S 762 mmHg 79%
    06:00 +21°C° 0 mm 1 m/S 762 mmHg 76%
    07:00 +21°C° 0 mm 1 m/S 762 mmHg 72%
    08:00 +23°C° 0 mm 1 m/S 763 mmHg 61%
    09:00 +26°C° 0 mm 1 m/S 763 mmHg 50%
    10:00 +28°C° 0 mm 1 m/S 763 mmHg 38%
    11:00 +29°C° 0 mm 1 m/S 763 mmHg 35%
    12:00 +30°C° 0 mm 2 m/S 763 mmHg 32%
    13:00 +31°C° 0 mm 2 m/S 762 mmHg 29%
    14:00 +31°C° 0 mm 3 m/S 762 mmHg 31%
    15:00 +30°C° 0 mm 3 m/S 762 mmHg 34%
    16:00 +30°C° 0 mm 3 m/S 761 mmHg 36%
    17:00 +29°C° 0 mm 3 m/S 761 mmHg 44%
    18:00 +27°C° 0 mm 2 m/S 762 mmHg 52%
    19:00 +25°C° 0 mm 2 m/S 762 mmHg 60%
    20:00 +24°C° 0 mm 2 m/S 762 mmHg 63%
    21:00 +24°C° 0 mm 1 m/S 762 mmHg 66%
    22:00 +23°C° 0 mm 1 m/S 763 mmHg 69%
    23:00 +23°C° 0 mm 1 m/S 763 mmHg 68%

    übermorgen, 26 September, Dienstag

    Zeit Temperatur Niederschläge Wind Luftdruck Luftfeuchtigkeit
    00:00 +23°C° 0 mm 1 m/S 762 mmHg 67%
    01:00 +22°C° 0 mm 1 m/S 762 mmHg 67%
    02:00 +22°C° 0 mm 1 m/S 762 mmHg 66%
    03:00 +22°C° 0 mm 1 m/S 762 mmHg 65%
    04:00 +22°C° 0 mm 1 m/S 762 mmHg 65%
    05:00 +22°C° 0 mm 1 m/S 762 mmHg 63%
    06:00 +22°C° 0 mm 1 m/S 762 mmHg 61%
    07:00 +22°C° 0 mm 1 m/S 762 mmHg 59%
    08:00 +25°C° 0 mm 1 m/S 762 mmHg 51%
    09:00 +27°C° 0 mm 1 m/S 762 mmHg 43%
    10:00 +30°C° 0 mm 1 m/S 762 mmHg 34%
    11:00 +31°C° 0 mm 1 m/S 762 mmHg 31%
    12:00 +32°C° 0 mm 2 m/S 762 mmHg 28%
    13:00 +34°C° 0 mm 2 m/S 762 mmHg 25%
    14:00 +33°C° 0 mm 3 m/S 761 mmHg 26%
    15:00 +33°C° 0 mm 3 m/S 761 mmHg 27%
    16:00 +33°C° 0 mm 4 m/S 761 mmHg 28%
    17:00 +30°C° 0 mm 4 m/S 761 mmHg 35%
    18:00 +28°C° 0 mm 3 m/S 761 mmHg 41%
    19:00 +26°C° 0 mm 3 m/S 761 mmHg 47%
    20:00 +26°C° 0 mm 2 m/S 762 mmHg 50%
    21:00 +25°C° 0 mm 2 m/S 762 mmHg 53%
    22:00 +24°C° 0 mm 1 m/S 762 mmHg 55%
    23:00 +24°C° 0 mm 1 m/S 762 mmHg 55%

    27 September, Mittwoch

    Zeit Temperatur Niederschläge Wind Luftdruck Luftfeuchtigkeit
    00:00 +24°C° 0 mm 1 m/S 762 mmHg 55%
    01:00 +23°C° 0 mm 1 m/S 762 mmHg 55%
    02:00 +23°C° 0 mm 1 m/S 762 mmHg 56%
    03:00 +23°C° 0 mm 1 m/S 762 mmHg 56%
    04:00 +23°C° 0 mm 1 m/S 762 mmHg 57%
    05:00 +23°C° 0 mm 1 m/S 762 mmHg 57%
    06:00 +23°C° 0 mm 1 m/S 762 mmHg 57%
    07:00 +23°C° 0 mm 1 m/S 762 mmHg 57%
    08:00 +25°C° 0 mm 1 m/S 762 mmHg 53%
    09:00 +27°C° 0 mm 2 m/S 763 mmHg 48%
    10:00 +28°C° 0 mm 2 m/S 763 mmHg 44%
    11:00 +29°C° 0 mm 3 m/S 763 mmHg 43%
    12:00 +30°C° 0 mm 3 m/S 763 mmHg 41%
    13:00 +31°C° 0 mm 3 m/S 763 mmHg 40%
    14:00 +30°C° 0 mm 4 m/S 762 mmHg 43%
    15:00 +30°C° 0 mm 4 m/S 762 mmHg 46%
    16:00 +29°C° 0 mm 4 m/S 762 mmHg 49%
    17:00 +28°C° 0 mm 4 m/S 763 mmHg 56%
    18:00 +26°C° 0 mm 3 m/S 763 mmHg 63%
    19:00 +25°C° 0 mm 2 m/S 764 mmHg 69%
    20:00 +24°C° 0 mm 2 m/S 764 mmHg 73%
    21:00 +23°C° 0 mm 1 m/S 764 mmHg 77%
    22:00 +23°C° 0 mm 1 m/S 765 mmHg 81%
    23:00 +22°C° 0 mm 1 m/S 765 mmHg 82%

    28 September, Donnerstag

    Zeit Temperatur Niederschläge Wind Luftdruck Luftfeuchtigkeit
    00:00 +22°C° 0 mm 1 m/S 765 mmHg 84%
    01:00 +22°C° 0 mm 1 m/S 765 mmHg 85%
    02:00 +22°C° 0,1 mm 1 m/S 765 mmHg 86%
    03:00 +21°C° 0,1 mm 1 m/S 765 mmHg 87%
    04:00 +21°C° 0,1 mm 1 m/S 765 mmHg 88%
    05:00 +21°C° 0,1 mm 1 m/S 765 mmHg 87%
    06:00 +20°C° 0,1 mm 2 m/S 765 mmHg 86%
    07:00 +20°C° 0,1 mm 2 m/S 765 mmHg 85%
    08:00 +21°C° 0 mm 2 m/S 765 mmHg 76%
    09:00 +24°C° 0 mm 2 m/S 766 mmHg 66%
    10:00 +25°C° 0 mm 3 m/S 766 mmHg 57%
    11:00 +26°C° 0 mm 3 m/S 766 mmHg 53%
    12:00 +27°C° 0 mm 3 m/S 765 mmHg 49%
    13:00 +28°C° 0 mm 4 m/S 765 mmHg 46%
    14:00 +27°C° 0 mm 4 m/S 765 mmHg 47%
    15:00 +27°C° 0 mm 4 m/S 765 mmHg 48%
    16:00 +27°C° 0 mm 4 m/S 764 mmHg 50%
    17:00 +25°C° 0 mm 4 m/S 765 mmHg 56%
    18:00 +24°C° 0 mm 3 m/S 765 mmHg 62%
    19:00 +23°C° 0 mm 2 m/S 765 mmHg 68%
    20:00 +21°C° 0 mm 2 m/S 765 mmHg 71%
    21:00 +21°C° 0 mm 2 m/S 766 mmHg 74%
    22:00 +22°C° 0 mm 1 m/S 766 mmHg 77%
    23:00 +21°C° 0 mm 1 m/S 766 mmHg 78%

    29 September, Freitag

    Zeit Temperatur Niederschläge Wind Luftdruck Luftfeuchtigkeit
    00:00 +21°C° 0 mm 1 m/S 766 mmHg 80%
    01:00 +21°C° 0 mm 1 m/S 765 mmHg 81%
    02:00 +20°C° 0 mm 2 m/S 765 mmHg 82%
    03:00 +19°C° 0 mm 2 m/S 765 mmHg 82%
    04:00 +19°C° 0 mm 2 m/S 765 mmHg 83%
    05:00 +19°C° 0 mm 2 m/S 765 mmHg 83%
    06:00 +19°C° 0 mm 2 m/S 765 mmHg 83%
    07:00 +19°C° 0 mm 2 m/S 765 mmHg 83%
    08:00 +21°C° 0 mm 2 m/S 765 mmHg 75%
    09:00 +23°C° 0 mm 2 m/S 765 mmHg 66%
    10:00 +25°C° 0 mm 3 m/S 765 mmHg 58%
    11:00 +26°C° 0 mm 3 m/S 765 mmHg 54%
    12:00 +27°C° 0 mm 3 m/S 764 mmHg 50%
    13:00 +28°C° 0 mm 4 m/S 764 mmHg 46%
    14:00 +27°C° 0 mm 4 m/S 764 mmHg 47%
    15:00 +27°C° 0 mm 4 m/S 763 mmHg 49%
    16:00 +27°C° 0 mm 4 m/S 763 mmHg 50%
    17:00 +26°C° 0 mm 3 m/S 763 mmHg 56%
    18:00 +24°C° 0 mm 2 m/S 764 mmHg 63%
    19:00 +23°C° 0 mm 2 m/S 764 mmHg 69%
    20:00 +22°C° 0 mm 1 m/S 764 mmHg 73%
    21:00 +22°C° 0 mm 1 m/S 765 mmHg 76%
    22:00 +21°C° 0 mm 1 m/S 765 mmHg 79%
    23:00 +21°C° 0 mm 1 m/S 765 mmHg 80%
    Mehr zeigen